User: anonymous   Login
Location: Belvedere Heights
(33.9836°N, 117.3109°W)
Time: 18:21:10
(UTC+00:00)
Language:

XW-2C - Orbit

View from above orbital plane
View from above orbital plane
View from above satellite
View from above satellite

Ground track
Ground track

The orbit data is extracted from the following two-line orbital elements,

1 40906U 15049H   24147.51211372  .00026431  00000-0  63363-3 0  9998
2 40906  97.4788 163.7758 0008556  37.0841 323.0995 15.41347385481137
Epoch (UTC): 26 May 2024 12:17:26
Eccentricity: 0.0008556
inclination: 97.4788°
perigee height: 436 km
apogee height: 448 km
right ascension of ascending node: 163.7758°
argument of perigee: 37.0841°
revolutions per day: 15.41347385
mean anomaly at epoch: 323.0995°
orbit number at epoch: 48113

The dashed part of the orbit path shows where the satellite is in the earth's shadow,  

DLR